Year,Month,Day,Hour,Minute,Value (Times are PST for windgust in km/hr)
2021,09,27,00,00,33.80
2021,09,27,00,01,33.80
2021,09,27,00,02,22.50
2021,09,27,00,03,17.70
2021,09,27,00,04,17.70
2021,09,27,00,05,25.70
2021,09,27,00,06,25.70
2021,09,27,00,07,29.00
2021,09,27,00,08,25.70
2021,09,27,00,09,20.90
2021,09,27,00,10,19.30
2021,09,27,00,11,24.20
2021,09,27,00,12,22.50
2021,09,27,00,13,20.90
2021,09,27,00,14,22.50
2021,09,27,00,15,24.20
2021,09,27,00,16,20.90
2021,09,27,00,17,25.70
2021,09,27,00,18,25.70
2021,09,27,00,19,22.50
2021,09,27,00,20,19.30
2021,09,27,00,21,24.20
2021,09,27,00,22,24.20
2021,09,27,00,23,22.50
2021,09,27,00,24,25.70
2021,09,27,00,25,29.00
2021,09,27,00,26,24.20
2021,09,27,00,27,30.60
2021,09,27,00,28,25.70
2021,09,27,00,29,24.20
2021,09,27,00,30,19.30
2021,09,27,00,31,22.50
2021,09,27,00,32,16.10
2021,09,27,00,33,12.90
2021,09,27,00,34,12.90
2021,09,27,00,35,9.60
2021,09,27,00,36,17.70
2021,09,27,00,37,22.50
2021,09,27,00,38,20.90
2021,09,27,00,39,20.90
2021,09,27,00,40,20.90
2021,09,27,00,41,24.20
2021,09,27,00,42,24.20
2021,09,27,00,43,20.90
2021,09,27,00,44,19.30
2021,09,27,00,45,29.00
2021,09,27,00,46,22.50
2021,09,27,00,47,22.50
2021,09,27,00,48,19.30
2021,09,27,00,49,14.50
2021,09,27,00,50,16.10
2021,09,27,00,51,9.60
2021,09,27,00,52,11.30
2021,09,27,00,53,14.50
2021,09,27,00,54,9.60
2021,09,27,00,55,12.90
2021,09,27,00,56,14.50
2021,09,27,00,57,16.10
2021,09,27,00,58,20.90
2021,09,27,00,59,19.30
2021,09,27,01,00,14.50
2021,09,27,01,01,14.50
2021,09,27,01,02,14.50
2021,09,27,01,03,12.90
2021,09,27,01,04,11.30
2021,09,27,01,05,6.40
2021,09,27,01,06,8.10
2021,09,27,01,07,8.10
2021,09,27,01,08,17.70
2021,09,27,01,09,16.10
2021,09,27,01,10,16.10
2021,09,27,01,11,14.50
2021,09,27,01,12,16.10
2021,09,27,01,13,14.50
2021,09,27,01,14,16.10
2021,09,27,01,15,8.10
2021,09,27,01,16,11.30
2021,09,27,01,17,8.10
2021,09,27,01,18,6.40
2021,09,27,01,19,8.10
2021,09,27,01,20,12.90
2021,09,27,01,21,8.10
2021,09,27,01,22,11.30
2021,09,27,01,23,9.60
2021,09,27,01,24,9.60
2021,09,27,01,25,4.80
2021,09,27,01,26,4.80
2021,09,27,01,27,8.10
2021,09,27,01,28,11.30
2021,09,27,01,29,12.90
2021,09,27,01,30,8.10
2021,09,27,01,31,6.40
2021,09,27,01,32,6.40
2021,09,27,01,33,3.20
2021,09,27,01,34,6.40
2021,09,27,01,35,4.80
2021,09,27,01,36,6.40
2021,09,27,01,37,6.40
2021,09,27,01,38,8.10
2021,09,27,01,39,9.60
2021,09,27,01,40,6.40
2021,09,27,01,41,9.60
2021,09,27,01,42,11.30
2021,09,27,01,43,9.60
2021,09,27,01,44,11.30
2021,09,27,01,45,8.10
2021,09,27,01,46,8.10
2021,09,27,01,47,6.40
2021,09,27,01,48,8.10
2021,09,27,01,49,11.30
2021,09,27,01,50,20.90
2021,09,27,01,51,16.10
2021,09,27,01,52,11.30
2021,09,27,01,53,12.90
2021,09,27,01,54,9.60
2021,09,27,01,55,17.70
2021,09,27,01,56,11.30
2021,09,27,01,57,11.30
2021,09,27,01,58,12.90
2021,09,27,01,59,11.30
2021,09,27,02,00,16.10
2021,09,27,02,01,8.10
2021,09,27,02,02,8.10
2021,09,27,02,03,3.20
2021,09,27,02,04,6.40
2021,09,27,02,05,8.10
2021,09,27,02,06,9.60
2021,09,27,02,07,14.50
2021,09,27,02,08,14.50
2021,09,27,02,09,19.30
2021,09,27,02,10,9.60
2021,09,27,02,11,11.30
2021,09,27,02,12,6.40
2021,09,27,02,13,6.40
2021,09,27,02,14,8.10
2021,09,27,02,15,9.60
2021,09,27,02,16,9.60
2021,09,27,02,17,11.30
2021,09,27,02,18,12.90
2021,09,27,02,19,6.40
2021,09,27,02,20,6.40
2021,09,27,02,21,8.10
2021,09,27,02,22,9.60
2021,09,27,02,23,8.10
2021,09,27,02,24,9.60
2021,09,27,02,25,9.60
2021,09,27,02,26,6.40
2021,09,27,02,27,11.30
2021,09,27,02,28,11.30
2021,09,27,02,29,11.30
2021,09,27,02,30,14.50
2021,09,27,02,31,12.90
2021,09,27,02,32,17.70
2021,09,27,02,33,14.50
2021,09,27,02,34,12.90
2021,09,27,02,35,11.30
2021,09,27,02,36,9.60
2021,09,27,02,37,12.90
2021,09,27,02,38,11.30
2021,09,27,02,39,12.90
2021,09,27,02,40,17.70
2021,09,27,02,41,17.70
2021,09,27,02,42,11.30
2021,09,27,02,43,11.30
2021,09,27,02,44,16.10
2021,09,27,02,45,19.30
2021,09,27,02,46,14.50
2021,09,27,02,47,17.70
2021,09,27,02,48,19.30
2021,09,27,02,49,11.30
2021,09,27,02,50,11.30
2021,09,27,02,51,16.10
2021,09,27,02,52,12.90
2021,09,27,02,53,9.60
2021,09,27,02,54,14.50
2021,09,27,02,55,22.50
2021,09,27,02,56,20.90
2021,09,27,02,57,19.30
2021,09,27,02,58,11.30
2021,09,27,02,59,9.60
2021,09,27,03,00,16.10
2021,09,27,03,01,9.60
2021,09,27,03,02,9.60
2021,09,27,03,03,12.90
2021,09,27,03,04,16.10
2021,09,27,03,05,17.70
2021,09,27,03,06,9.60
2021,09,27,03,07,9.60
2021,09,27,03,08,9.60
2021,09,27,03,09,8.10
2021,09,27,03,10,16.10
2021,09,27,03,11,17.70
2021,09,27,03,12,14.50
2021,09,27,03,13,12.90
2021,09,27,03,14,9.60
2021,09,27,03,15,12.90
2021,09,27,03,16,14.50
2021,09,27,03,17,14.50
2021,09,27,03,18,14.50
2021,09,27,03,19,11.30
2021,09,27,03,20,8.10
2021,09,27,03,21,9.60
2021,09,27,03,22,12.90
2021,09,27,03,23,12.90
2021,09,27,03,24,9.60
2021,09,27,03,25,9.60
2021,09,27,03,26,8.10
2021,09,27,03,27,8.10
2021,09,27,03,28,8.10
2021,09,27,03,29,9.60
2021,09,27,03,30,11.30
2021,09,27,03,31,11.30
2021,09,27,03,32,9.60
2021,09,27,03,33,8.10
2021,09,27,03,34,9.60
2021,09,27,03,35,9.60
2021,09,27,03,36,11.30
2021,09,27,03,37,14.50
2021,09,27,03,38,11.30
2021,09,27,03,39,9.60
2021,09,27,03,40,11.30
2021,09,27,03,41,14.50
2021,09,27,03,42,14.50
2021,09,27,03,43,8.10
2021,09,27,03,44,9.60
2021,09,27,03,45,9.60
2021,09,27,03,46,9.60
2021,09,27,03,47,9.60
2021,09,27,03,48,9.60
2021,09,27,03,49,11.30
2021,09,27,03,50,12.90
2021,09,27,03,51,11.30
2021,09,27,03,52,9.60
2021,09,27,03,53,11.30
2021,09,27,03,54,14.50
2021,09,27,03,55,11.30
2021,09,27,03,56,9.60
2021,09,27,03,57,12.90
2021,09,27,03,58,9.60
2021,09,27,03,59,11.30
2021,09,27,04,00,8.10
2021,09,27,04,01,11.30
2021,09,27,04,02,12.90
2021,09,27,04,03,14.50
2021,09,27,04,04,12.90
2021,09,27,04,05,11.30
2021,09,27,04,06,14.50
2021,09,27,04,07,19.30
2021,09,27,04,08,20.90
2021,09,27,04,09,12.90
2021,09,27,04,10,19.30
2021,09,27,04,11,16.10
2021,09,27,04,12,9.60
2021,09,27,04,13,16.10
2021,09,27,04,14,14.50
2021,09,27,04,15,19.30
2021,09,27,04,16,11.30
2021,09,27,04,17,11.30
2021,09,27,04,18,11.30
2021,09,27,04,19,14.50
2021,09,27,04,20,14.50
2021,09,27,04,21,12.90
2021,09,27,04,22,14.50
2021,09,27,04,23,12.90
2021,09,27,04,24,14.50
2021,09,27,04,25,14.50
2021,09,27,04,26,11.30
2021,09,27,04,27,17.70
2021,09,27,04,28,14.50
2021,09,27,04,29,17.70
2021,09,27,04,30,11.30
2021,09,27,04,31,9.60
2021,09,27,04,32,9.60
2021,09,27,04,33,8.10
2021,09,27,04,34,8.10
2021,09,27,04,35,8.10
2021,09,27,04,36,6.40
2021,09,27,04,37,6.40
2021,09,27,04,38,4.80
2021,09,27,04,39,6.40
2021,09,27,04,40,11.30
2021,09,27,04,41,11.30
2021,09,27,04,42,8.10
2021,09,27,04,43,9.60
2021,09,27,04,44,11.30
2021,09,27,04,45,12.90
2021,09,27,04,46,12.90
2021,09,27,04,47,9.60
2021,09,27,04,48,9.60
2021,09,27,04,49,11.30
2021,09,27,04,50,17.70
2021,09,27,04,51,16.10
2021,09,27,04,52,14.50
2021,09,27,04,53,17.70
2021,09,27,04,54,12.90
2021,09,27,04,55,16.10
2021,09,27,04,56,11.30
2021,09,27,04,57,14.50
2021,09,27,04,58,12.90
2021,09,27,04,59,9.60
2021,09,27,05,00,8.10
2021,09,27,05,01,9.60
2021,09,27,05,02,14.50
2021,09,27,05,03,14.50
2021,09,27,05,04,12.90
2021,09,27,05,05,11.30
2021,09,27,05,06,17.70
2021,09,27,05,07,9.60
2021,09,27,05,08,9.60
2021,09,27,05,09,9.60
2021,09,27,05,10,8.10
2021,09,27,05,11,8.10
2021,09,27,05,12,9.60
2021,09,27,05,13,12.90
2021,09,27,05,14,16.10
2021,09,27,05,15,9.60
2021,09,27,05,16,8.10
2021,09,27,05,17,8.10
2021,09,27,05,18,6.40
2021,09,27,05,19,9.60
2021,09,27,05,20,8.10
2021,09,27,05,21,6.40
2021,09,27,05,22,6.40
2021,09,27,05,23,14.50
2021,09,27,05,24,9.60
2021,09,27,05,25,9.60
2021,09,27,05,26,6.40
2021,09,27,05,27,12.90
2021,09,27,05,28,11.30
2021,09,27,05,29,12.90
2021,09,27,05,30,8.10
2021,09,27,05,31,9.60
2021,09,27,05,32,9.60
2021,09,27,05,33,8.10
2021,09,27,05,34,9.60
2021,09,27,05,35,6.40
2021,09,27,05,36,11.30
2021,09,27,05,37,8.10
2021,09,27,05,38,11.30
2021,09,27,05,39,9.60
2021,09,27,05,40,6.40
2021,09,27,05,41,9.60
2021,09,27,05,42,8.10
2021,09,27,05,43,6.40
2021,09,27,05,44,9.60
2021,09,27,05,45,9.60
2021,09,27,05,46,19.30
2021,09,27,05,47,9.60
2021,09,27,05,48,6.40
2021,09,27,05,49,9.60
2021,09,27,05,50,12.90
2021,09,27,05,51,12.90
2021,09,27,05,52,16.10
2021,09,27,05,53,14.50
2021,09,27,05,54,14.50
2021,09,27,05,55,12.90
2021,09,27,05,56,9.60
2021,09,27,05,57,11.30
2021,09,27,05,58,12.90
2021,09,27,05,59,12.90
2021,09,27,06,00,8.10
2021,09,27,06,01,8.10
2021,09,27,06,02,8.10
2021,09,27,06,03,11.30
2021,09,27,06,04,12.90
2021,09,27,06,05,9.60
2021,09,27,06,06,11.30
2021,09,27,06,07,12.90
2021,09,27,06,08,12.90
2021,09,27,06,09,12.90
2021,09,27,06,10,14.50
2021,09,27,06,11,14.50
2021,09,27,06,12,14.50
2021,09,27,06,13,12.90
2021,09,27,06,14,16.10
2021,09,27,06,15,17.70
2021,09,27,06,16,17.70
2021,09,27,06,17,30.60
2021,09,27,06,18,24.20
2021,09,27,06,19,24.20
2021,09,27,06,20,20.90
2021,09,27,06,21,20.90
2021,09,27,06,22,24.20
2021,09,27,06,23,19.30
2021,09,27,06,24,20.90
2021,09,27,06,25,20.90
2021,09,27,06,26,20.90
2021,09,27,06,27,20.90
2021,09,27,06,28,19.30
2021,09,27,06,29,19.30
2021,09,27,06,30,24.20
2021,09,27,06,31,20.90
2021,09,27,06,32,20.90
2021,09,27,06,33,24.20
2021,09,27,06,34,20.90
2021,09,27,06,35,20.90
2021,09,27,06,36,24.20
2021,09,27,06,37,27.40
2021,09,27,06,38,25.70
2021,09,27,06,39,17.70
2021,09,27,06,40,20.90
2021,09,27,06,41,20.90
2021,09,27,06,42,17.70
2021,09,27,06,43,20.90
2021,09,27,06,44,17.70
2021,09,27,06,45,20.90
2021,09,27,06,46,19.30
2021,09,27,06,47,17.70
2021,09,27,06,48,17.70
2021,09,27,06,49,16.10
2021,09,27,06,50,16.10
2021,09,27,06,51,22.50
2021,09,27,06,52,22.50
2021,09,27,06,53,24.20
2021,09,27,06,54,24.20
2021,09,27,06,55,22.50
2021,09,27,06,56,17.70
2021,09,27,06,57,20.90
2021,09,27,06,58,19.30
2021,09,27,06,59,19.30
2021,09,27,07,00,20.90
2021,09,27,07,01,14.50
2021,09,27,07,02,14.50
2021,09,27,07,03,14.50
2021,09,27,07,04,14.50
2021,09,27,07,05,11.30
2021,09,27,07,06,12.90
2021,09,27,07,07,14.50
2021,09,27,07,08,17.70
2021,09,27,07,09,16.10
2021,09,27,07,10,17.70
2021,09,27,07,11,17.70
2021,09,27,07,12,16.10
2021,09,27,07,13,17.70
2021,09,27,07,14,16.10
2021,09,27,07,15,14.50
2021,09,27,07,16,14.50
2021,09,27,07,17,14.50
2021,09,27,07,18,16.10
2021,09,27,07,19,12.90
2021,09,27,07,20,14.50
2021,09,27,07,21,11.30
2021,09,27,07,22,12.90
2021,09,27,07,23,12.90
2021,09,27,07,24,9.60
2021,09,27,07,25,11.30
2021,09,27,07,26,12.90
2021,09,27,07,27,12.90
2021,09,27,07,28,12.90
2021,09,27,07,29,11.30
2021,09,27,07,30,12.90
2021,09,27,07,31,14.50
2021,09,27,07,32,12.90
2021,09,27,07,33,17.70
2021,09,27,07,34,14.50
2021,09,27,07,35,11.30
2021,09,27,07,36,12.90
2021,09,27,07,37,14.50
2021,09,27,07,38,12.90
2021,09,27,07,39,12.90
2021,09,27,07,40,14.50
2021,09,27,07,41,16.10
2021,09,27,07,42,8.10
2021,09,27,07,43,19.30
2021,09,27,07,44,11.30
2021,09,27,07,45,9.60
2021,09,27,07,46,16.10
2021,09,27,07,47,14.50
2021,09,27,07,48,11.30
2021,09,27,07,49,12.90
2021,09,27,07,50,11.30
2021,09,27,07,51,12.90
2021,09,27,07,52,12.90
2021,09,27,07,53,14.50
2021,09,27,07,54,12.90
2021,09,27,07,55,14.50
2021,09,27,07,56,14.50
2021,09,27,07,57,14.50
2021,09,27,07,58,16.10
2021,09,27,07,59,17.70
2021,09,27,08,00,19.30
2021,09,27,08,01,16.10
2021,09,27,08,02,22.50
2021,09,27,08,03,19.30
2021,09,27,08,04,17.70
2021,09,27,08,05,17.70
2021,09,27,08,06,19.30
2021,09,27,08,07,16.10
2021,09,27,08,08,17.70
2021,09,27,08,09,16.10
2021,09,27,08,10,17.70
2021,09,27,08,11,17.70
2021,09,27,08,12,25.70
2021,09,27,08,13,20.90
2021,09,27,08,14,17.70
2021,09,27,08,15,17.70
2021,09,27,08,16,17.70
2021,09,27,08,17,17.70
2021,09,27,08,18,14.50
2021,09,27,08,19,16.10
2021,09,27,08,20,14.50
2021,09,27,08,21,16.10
2021,09,27,08,22,14.50
2021,09,27,08,23,17.70
2021,09,27,08,24,20.90
2021,09,27,08,25,14.50
2021,09,27,08,26,17.70
2021,09,27,08,27,16.10
2021,09,27,08,28,17.70
2021,09,27,08,29,19.30
2021,09,27,08,30,19.30
2021,09,27,08,31,17.70
2021,09,27,08,32,19.30
2021,09,27,08,33,19.30
2021,09,27,08,34,16.10
2021,09,27,08,35,17.70
2021,09,27,08,36,17.70
2021,09,27,08,37,16.10
2021,09,27,08,38,12.90
2021,09,27,08,39,14.50
2021,09,27,08,40,11.30
2021,09,27,08,41,9.60
2021,09,27,08,42,9.60
2021,09,27,08,43,14.50
2021,09,27,08,44,12.90
2021,09,27,08,45,16.10
2021,09,27,08,46,16.10
2021,09,27,08,47,14.50
2021,09,27,08,48,14.50
2021,09,27,08,49,19.30
2021,09,27,08,50,17.70
2021,09,27,08,51,19.30
2021,09,27,08,52,14.50
2021,09,27,08,53,20.90
2021,09,27,08,54,19.30
2021,09,27,08,55,17.70
2021,09,27,08,56,16.10
2021,09,27,08,57,16.10
2021,09,27,08,58,14.50
2021,09,27,08,59,17.70
2021,09,27,09,00,16.10
2021,09,27,09,01,17.70
2021,09,27,09,02,19.30
2021,09,27,09,03,17.70
2021,09,27,09,04,19.30
2021,09,27,09,05,19.30
2021,09,27,09,06,16.10
2021,09,27,09,07,24.20
2021,09,27,09,08,24.20
2021,09,27,09,09,17.70
2021,09,27,09,10,17.70
2021,09,27,09,11,22.50
2021,09,27,09,12,19.30
2021,09,27,09,13,22.50
2021,09,27,09,14,16.10
2021,09,27,09,15,16.10
2021,09,27,09,16,14.50
2021,09,27,09,17,24.20
2021,09,27,09,18,16.10
2021,09,27,09,19,19.30
2021,09,27,09,20,20.90
2021,09,27,09,21,19.30
2021,09,27,09,22,19.30
2021,09,27,09,23,19.30
2021,09,27,09,24,20.90
2021,09,27,09,25,20.90
2021,09,27,09,26,19.30
2021,09,27,09,27,25.70
2021,09,27,09,28,24.20
2021,09,27,09,29,24.20
2021,09,27,09,30,20.90
2021,09,27,09,31,25.70
2021,09,27,09,32,22.50
2021,09,27,09,33,19.30
2021,09,27,09,34,20.90
2021,09,27,09,35,24.20
2021,09,27,09,36,20.90
2021,09,27,09,37,24.20
2021,09,27,09,38,17.70
2021,09,27,09,39,19.30
2021,09,27,09,40,22.50
2021,09,27,09,41,24.20
2021,09,27,09,42,22.50
2021,09,27,09,43,22.50
2021,09,27,09,44,24.20
2021,09,27,09,45,19.30
2021,09,27,09,46,24.20
2021,09,27,09,47,20.90
2021,09,27,09,48,22.50
2021,09,27,09,49,24.20
2021,09,27,09,50,25.70
2021,09,27,09,51,25.70
2021,09,27,09,52,22.50
2021,09,27,09,53,25.70
2021,09,27,09,54,24.20
2021,09,27,09,55,24.20
2021,09,27,09,56,19.30
2021,09,27,09,57,19.30
2021,09,27,09,58,27.40
2021,09,27,09,59,24.20
2021,09,27,10,00,24.20
2021,09,27,10,01,20.90
2021,09,27,10,02,22.50
2021,09,27,10,03,20.90
2021,09,27,10,04,22.50
2021,09,27,10,05,22.50
2021,09,27,10,06,24.20
2021,09,27,10,07,22.50
2021,09,27,10,08,19.30
2021,09,27,10,09,19.30
2021,09,27,10,10,22.50
2021,09,27,10,11,22.50
2021,09,27,10,12,22.50
2021,09,27,10,13,19.30
2021,09,27,10,14,22.50
2021,09,27,10,15,29.00
2021,09,27,10,16,25.70
2021,09,27,10,17,20.90
2021,09,27,10,18,20.90
2021,09,27,10,19,19.30
2021,09,27,10,20,19.30
2021,09,27,10,21,25.70
2021,09,27,10,22,20.90
2021,09,27,10,23,24.20
2021,09,27,10,24,24.20
2021,09,27,10,25,22.50
2021,09,27,10,26,24.20
2021,09,27,10,27,27.40
2021,09,27,10,28,27.40
2021,09,27,10,29,29.00
2021,09,27,10,30,30.60
2021,09,27,10,31,29.00
2021,09,27,10,32,33.80
2021,09,27,10,33,25.70
2021,09,27,10,34,29.00
2021,09,27,10,35,37.00
2021,09,27,10,36,33.80
2021,09,27,10,37,32.20
2021,09,27,10,38,30.60
2021,09,27,10,39,35.40
2021,09,27,10,40,32.20
2021,09,27,10,41,30.60
2021,09,27,10,42,29.00
2021,09,27,10,43,35.40
2021,09,27,10,44,29.00
2021,09,27,10,45,35.40
2021,09,27,10,46,32.20
2021,09,27,10,47,35.40
2021,09,27,10,48,32.20
2021,09,27,10,49,29.00
2021,09,27,10,50,30.60
2021,09,27,10,51,33.80
2021,09,27,10,52,32.20
2021,09,27,10,53,27.40
2021,09,27,10,54,30.60
2021,09,27,10,55,29.00
2021,09,27,10,56,29.00
2021,09,27,10,57,33.80
2021,09,27,10,58,27.40
2021,09,27,10,59,25.70
2021,09,27,11,00,24.20
2021,09,27,11,01,32.20
2021,09,27,11,02,27.40
2021,09,27,11,03,25.70
2021,09,27,11,04,27.40
2021,09,27,11,05,25.70
2021,09,27,11,06,22.50
2021,09,27,11,07,24.20
2021,09,27,11,08,27.40
2021,09,27,11,09,27.40
2021,09,27,11,10,24.20
2021,09,27,11,11,22.50
2021,09,27,11,12,25.70
2021,09,27,11,13,25.70
2021,09,27,11,14,24.20
2021,09,27,11,15,24.20
2021,09,27,11,16,24.20
2021,09,27,11,17,30.60
2021,09,27,11,18,25.70
2021,09,27,11,19,30.60
2021,09,27,11,20,33.80
2021,09,27,11,21,25.70
2021,09,27,11,22,30.60
2021,09,27,11,23,25.70
2021,09,27,11,24,30.60
2021,09,27,11,25,32.20
2021,09,27,11,26,32.20
2021,09,27,11,27,33.80
2021,09,27,11,28,32.20
2021,09,27,11,29,32.20
2021,09,27,11,30,27.40
2021,09,27,11,31,27.40
2021,09,27,11,32,29.00
2021,09,27,11,33,25.70
2021,09,27,11,34,27.40
2021,09,27,11,35,29.00
2021,09,27,11,36,27.40
2021,09,27,11,37,25.70
2021,09,27,11,38,30.60
2021,09,27,11,39,24.20
2021,09,27,11,40,25.70
2021,09,27,11,41,24.20
2021,09,27,11,42,24.20
2021,09,27,11,43,20.90
2021,09,27,11,44,20.90
2021,09,27,11,45,22.50
2021,09,27,11,46,20.90
2021,09,27,11,47,17.70
2021,09,27,11,48,19.30
2021,09,27,11,49,20.90
2021,09,27,11,50,17.70
2021,09,27,11,51,19.30
2021,09,27,11,52,20.90
2021,09,27,11,53,19.30
2021,09,27,11,54,24.20
2021,09,27,11,55,22.50
2021,09,27,11,56,27.40
2021,09,27,11,57,22.50
2021,09,27,11,58,22.50
2021,09,27,11,59,22.50
2021,09,27,12,00,19.30
2021,09,27,12,01,24.20
2021,09,27,12,02,24.20
2021,09,27,12,03,24.20
2021,09,27,12,04,24.20
2021,09,27,12,05,20.90
2021,09,27,12,06,24.20
2021,09,27,12,07,27.40
2021,09,27,12,08,22.50
2021,09,27,12,09,22.50
2021,09,27,12,10,25.70
2021,09,27,12,11,19.30
2021,09,27,12,12,19.30
2021,09,27,12,13,22.50
2021,09,27,12,14,24.20
2021,09,27,12,15,22.50
2021,09,27,12,16,22.50
2021,09,27,12,17,20.90
2021,09,27,12,18,20.90
2021,09,27,12,19,16.10
2021,09,27,12,20,22.50
2021,09,27,12,21,22.50
2021,09,27,12,22,24.20
2021,09,27,12,23,24.20
2021,09,27,12,24,22.50
2021,09,27,12,25,17.70
2021,09,27,12,26,20.90
2021,09,27,12,27,19.30
2021,09,27,12,28,19.30
2021,09,27,12,29,22.50
2021,09,27,12,30,19.30
2021,09,27,12,31,24.20
2021,09,27,12,32,24.20
2021,09,27,12,33,25.70
2021,09,27,12,34,20.90
2021,09,27,12,35,20.90
2021,09,27,12,36,17.70
2021,09,27,12,37,19.30
2021,09,27,12,38,19.30
2021,09,27,12,39,20.90
2021,09,27,12,40,20.90
2021,09,27,12,41,20.90
2021,09,27,12,42,20.90
2021,09,27,12,43,20.90
2021,09,27,12,44,20.90
2021,09,27,12,45,20.90
2021,09,27,12,46,22.50
2021,09,27,12,47,17.70
2021,09,27,12,48,17.70
2021,09,27,12,49,20.90
2021,09,27,12,50,17.70
2021,09,27,12,51,19.30
2021,09,27,12,52,16.10
2021,09,27,12,53,17.70
2021,09,27,12,54,16.10
2021,09,27,12,55,19.30
2021,09,27,12,56,16.10
2021,09,27,12,57,12.90
2021,09,27,12,58,16.10
2021,09,27,12,59,14.50
2021,09,27,13,00,12.90
2021,09,27,13,01,8.10
2021,09,27,13,02,14.50
2021,09,27,13,03,11.30
2021,09,27,13,04,9.60
2021,09,27,13,05,16.10
2021,09,27,13,06,16.10
2021,09,27,13,07,16.10
2021,09,27,13,08,14.50
2021,09,27,13,09,16.10
2021,09,27,13,10,17.70
2021,09,27,13,11,14.50
2021,09,27,13,12,14.50
2021,09,27,13,13,19.30
2021,09,27,13,14,12.90
2021,09,27,13,15,14.50
2021,09,27,13,16,16.10
2021,09,27,13,17,20.90
2021,09,27,13,18,24.20
2021,09,27,13,19,16.10
2021,09,27,13,20,16.10
2021,09,27,13,21,14.50
2021,09,27,13,22,16.10
2021,09,27,13,23,14.50
2021,09,27,13,24,12.90
2021,09,27,13,25,16.10
2021,09,27,13,26,14.50
2021,09,27,13,27,12.90
2021,09,27,13,28,12.90
2021,09,27,13,29,16.10
2021,09,27,13,30,11.30
2021,09,27,13,31,12.90
2021,09,27,13,32,16.10
2021,09,27,13,33,17.70
2021,09,27,13,34,16.10
2021,09,27,13,35,16.10
2021,09,27,13,36,11.30
2021,09,27,13,37,11.30
2021,09,27,13,38,9.60
2021,09,27,13,39,11.30
2021,09,27,13,40,8.10
2021,09,27,13,41,8.10
2021,09,27,13,42,11.30
2021,09,27,13,43,8.10
2021,09,27,13,44,14.50
2021,09,27,13,45,12.90
2021,09,27,13,46,9.60
2021,09,27,13,47,12.90
2021,09,27,13,48,16.10
2021,09,27,13,49,9.60
2021,09,27,13,50,17.70
2021,09,27,13,51,14.50
2021,09,27,13,52,14.50
2021,09,27,13,53,17.70
2021,09,27,13,54,17.70
2021,09,27,13,55,12.90
2021,09,27,13,56,11.30
2021,09,27,13,57,9.60
2021,09,27,13,58,6.40
2021,09,27,13,59,9.60
2021,09,27,14,00,14.50
2021,09,27,14,01,14.50
2021,09,27,14,02,14.50
2021,09,27,14,03,14.50
2021,09,27,14,04,11.30
2021,09,27,14,05,8.10
2021,09,27,14,06,8.10
2021,09,27,14,07,8.10
2021,09,27,14,08,6.40
2021,09,27,14,09,6.40
2021,09,27,14,10,6.40
2021,09,27,14,11,3.20
2021,09,27,14,12,4.80
2021,09,27,14,13,9.60
2021,09,27,14,14,11.30
2021,09,27,14,15,8.10
2021,09,27,14,16,6.40
2021,09,27,14,17,3.20
2021,09,27,14,18,4.80
2021,09,27,14,19,4.80
2021,09,27,14,20,4.80
2021,09,27,14,21,1.60
2021,09,27,14,22,3.20
2021,09,27,14,23,3.20
2021,09,27,14,24,3.20
2021,09,27,14,25,4.80
2021,09,27,14,26,3.20
2021,09,27,14,27,3.20
2021,09,27,14,28,3.20
2021,09,27,14,29,1.60
2021,09,27,14,30,1.60
2021,09,27,14,31,1.60
2021,09,27,14,32,1.60
2021,09,27,14,33,3.20
2021,09,27,14,34,3.20
2021,09,27,14,35,4.80
2021,09,27,14,36,3.20
2021,09,27,14,37,1.60
2021,09,27,14,39,1.60
2021,09,27,14,40,1.60
2021,09,27,14,41,1.60
2021,09,27,14,42,1.60
2021,09,27,14,43,3.20
2021,09,27,14,44,3.20
2021,09,27,14,45,3.20
2021,09,27,14,46,3.20
2021,09,27,14,47,1.60
2021,09,27,14,48,3.20
2021,09,27,14,49,1.60
2021,09,27,14,50,1.60
2021,09,27,14,51,3.20
2021,09,27,14,52,4.80
2021,09,27,14,53,3.20
2021,09,27,14,54,4.80
2021,09,27,14,55,4.80
2021,09,27,14,56,3.20
2021,09,27,14,58,1.60
2021,09,27,14,59,1.60
2021,09,27,15,00,3.20
2021,09,27,15,01,6.40
2021,09,27,15,02,6.40
2021,09,27,15,03,9.60
2021,09,27,15,04,11.30
2021,09,27,15,05,11.30
2021,09,27,15,06,8.10
2021,09,27,15,07,6.40
2021,09,27,15,08,6.40
2021,09,27,15,09,6.40
2021,09,27,15,10,4.80
2021,09,27,15,11,6.40
2021,09,27,15,12,6.40
2021,09,27,15,13,8.10
2021,09,27,15,14,11.30
2021,09,27,15,15,11.30
2021,09,27,15,16,11.30
2021,09,27,15,17,9.60
2021,09,27,15,18,9.60
2021,09,27,15,19,9.60
2021,09,27,15,20,6.40
2021,09,27,15,21,6.40
2021,09,27,15,22,3.20
2021,09,27,15,23,9.60
2021,09,27,15,24,8.10
2021,09,27,15,25,9.60
2021,09,27,15,26,12.90
2021,09,27,15,27,14.50
2021,09,27,15,28,9.60
2021,09,27,15,29,11.30
2021,09,27,15,30,9.60
2021,09,27,15,31,9.60
2021,09,27,15,32,9.60
2021,09,27,15,33,8.10
2021,09,27,15,34,8.10
2021,09,27,15,35,8.10
2021,09,27,15,36,6.40
2021,09,27,15,37,4.80
2021,09,27,15,38,8.10
2021,09,27,15,39,4.80
2021,09,27,15,40,4.80
2021,09,27,15,41,4.80
2021,09,27,15,42,8.10
2021,09,27,15,43,4.80
2021,09,27,15,44,6.40
2021,09,27,15,45,6.40
2021,09,27,15,46,11.30
2021,09,27,15,47,9.60
2021,09,27,15,48,9.60
2021,09,27,15,49,4.80
2021,09,27,15,50,3.20
2021,09,27,15,51,3.20
2021,09,27,15,52,8.10
2021,09,27,15,53,8.10
2021,09,27,15,54,8.10
2021,09,27,15,55,8.10
2021,09,27,15,56,8.10
2021,09,27,15,57,9.60
2021,09,27,15,58,11.30
2021,09,27,15,59,11.30
2021,09,27,16,00,12.90
2021,09,27,16,01,8.10
2021,09,27,16,02,11.30
2021,09,27,16,03,8.10
2021,09,27,16,04,8.10
2021,09,27,16,05,6.40
2021,09,27,16,06,6.40
2021,09,27,16,07,8.10
2021,09,27,16,08,8.10
2021,09,27,16,09,11.30
2021,09,27,16,10,12.90
2021,09,27,16,11,12.90
2021,09,27,16,12,14.50
2021,09,27,16,13,12.90
2021,09,27,16,14,14.50
2021,09,27,16,15,9.60
2021,09,27,16,16,9.60
2021,09,27,16,17,9.60
2021,09,27,16,18,6.40
2021,09,27,16,19,4.80
2021,09,27,16,20,4.80
2021,09,27,16,21,9.60
2021,09,27,16,22,9.60
2021,09,27,16,23,8.10
2021,09,27,16,24,9.60
2021,09,27,16,25,11.30
2021,09,27,16,26,6.40
2021,09,27,16,27,9.60
2021,09,27,16,28,11.30
2021,09,27,16,29,9.60
2021,09,27,16,30,9.60
2021,09,27,16,31,9.60
2021,09,27,16,32,9.60
2021,09,27,16,33,14.50
2021,09,27,16,34,12.90
2021,09,27,16,35,8.10
2021,09,27,16,36,9.60
2021,09,27,16,37,9.60
2021,09,27,16,38,8.10
2021,09,27,16,39,9.60
2021,09,27,16,40,9.60
2021,09,27,16,41,12.90
2021,09,27,16,42,11.30
2021,09,27,16,43,11.30
2021,09,27,16,44,11.30
2021,09,27,16,45,9.60
2021,09,27,16,46,6.40
2021,09,27,16,47,11.30
2021,09,27,16,48,11.30
2021,09,27,16,49,12.90
2021,09,27,16,50,4.80
2021,09,27,16,51,3.20
2021,09,27,16,52,4.80
2021,09,27,16,53,4.80
2021,09,27,16,54,8.10
2021,09,27,16,55,9.60
2021,09,27,16,56,9.60
2021,09,27,16,57,12.90
2021,09,27,16,58,11.30
2021,09,27,16,59,12.90
2021,09,27,17,00,8.10
2021,09,27,17,01,9.60
2021,09,27,17,02,11.30
2021,09,27,17,03,17.70
2021,09,27,17,04,14.50
2021,09,27,17,05,12.90
2021,09,27,17,06,16.10
2021,09,27,17,07,9.60
2021,09,27,17,08,12.90
2021,09,27,17,09,12.90
2021,09,27,17,10,12.90
2021,09,27,17,11,14.50
2021,09,27,17,12,16.10
2021,09,27,17,13,12.90
2021,09,27,17,14,17.70
2021,09,27,17,15,8.10
2021,09,27,17,16,11.30
2021,09,27,17,17,12.90
2021,09,27,17,18,14.50
2021,09,27,17,19,12.90
2021,09,27,17,20,11.30
2021,09,27,17,21,9.60
2021,09,27,17,22,11.30
2021,09,27,17,23,11.30
2021,09,27,17,24,4.80
2021,09,27,17,25,6.40
2021,09,27,17,26,8.10
2021,09,27,17,27,11.30
2021,09,27,17,28,8.10
2021,09,27,17,29,9.60
2021,09,27,17,30,8.10
2021,09,27,17,31,6.40
2021,09,27,17,32,6.40
2021,09,27,17,33,11.30
2021,09,27,17,34,16.10